| time (UTC) | temp C | wind direction | speed KPH | gust KPH | rain 1hr cm | rain 24hr cm | rain mn cm | humidity % | barometer mb |
| 20260502163016 | 16 | 242 | 14.5 | 32.2 | 0.00 | 0.00 | 0.00 | 44 | 1015.1 |
| 20260502161527 | 15 | 266 | 14.5 | 30.6 | 0.00 | 0.00 | 0.00 | 44 | 1015.3 |
| 20260502151526 | 12 | 224 | 14.5 | 27.4 | 0.00 | 0.00 | 0.00 | 52 | 1016.2 |
| 20260502150146 | 11 | 263 | 16.1 | 27.4 | 0.00 | 0.00 | 0.00 | 53 | 1016.4 |
| 20260502123031 | 2 | 217 | 6.4 | 11.3 | 0.00 | 0.00 | 0.00 | 84 | 1018.1 |
| 20260502121543 | 1 | 177 | 8.0 | 9.7 | 0.00 | 0.00 | 0.00 | 84 | 1018.3 |
| 20260502114556 | 0 | 189 | 0.0 | 3.2 | 0.00 | 0.00 | 0.00 | 85 | 1018.4 |
| 20260502113058 | 0 | 189 | 0.0 | 4.8 | 0.00 | 0.00 | 0.00 | 82 | 1018.4 |
| 20260502111516 | 0 | 254 | 1.6 | 8.0 | 0.00 | 0.00 | 0.00 | 82 | 1018.4 |
| 20260502110021 | 0 | 232 | 0.0 | 6.4 | 0.00 | 0.00 | 0.00 | 82 | 1018.5 |
| 20260502104539 | 0 | 248 | 0.0 | 4.8 | 0.00 | 0.00 | 0.00 | 81 | 1018.7 |
| 20260502103030 | 0 | 233 | 1.6 | 4.8 | 0.00 | 0.00 | 0.00 | 80 | 1018.8 |
| 20260502101540 | 1 | 257 | 1.6 | 8.0 | 0.00 | 0.00 | 0.00 | 79 | 1018.8 |
| 20260502100104 | 1 | 215 | 1.6 | 9.7 | 0.00 | 0.00 | 0.00 | 79 | 1018.9 |
| 20260502091514 | 1 | 246 | 9.7 | 12.9 | 0.00 | 0.00 | 0.00 | 79 | 1019.1 |
| 20260502071527 | 2 | 240 | 1.6 | 6.4 | 0.00 | 0.00 | 0.00 | 73 | 1019.4 |
| 20260502070028 | 2 | 246 | 3.2 | 8.0 | 0.00 | 0.00 | 0.00 | 70 | 1019.5 |
| 20260502064539 | 2 | 241 | 0.0 | 4.8 | 0.00 | 0.00 | 0.00 | 70 | 1019.6 |
| 20260502063037 | 2 | 229 | 0.0 | 3.2 | 0.00 | 0.00 | 0.00 | 71 | 1019.7 |
| 20260502061547 | 2 | 229 | 0.0 | 3.2 | 0.00 | 0.00 | 0.00 | 71 | 1019.8 |
| 20260502054512 | 2 | 224 | 4.8 | 6.4 | 0.00 | 0.00 | 0.00 | 75 | 1019.6 |
| 20260502053017 | 2 | 206 | 0.0 | 4.8 | 0.00 | 0.00 | 0.00 | 80 | 1019.7 |
| 20260502051532 | 2 | 318 | 0.0 | 0.0 | 0.00 | 0.00 | 0.00 | 79 | 1019.8 |
| 20260502050021 | 2 | 318 | 0.0 | 0.0 | 0.00 | 0.00 | 0.00 | 79 | 1019.9 |
| 20260502044537 | 2 | 318 | 0.0 | 0.0 | 0.00 | 0.00 | 0.00 | 77 | 1019.9 |
| 20260502043048 | 3 | 318 | 0.0 | 0.0 | 0.00 | 0.00 | 0.00 | 75 | 1020.0 |
| 20260502041554 | 3 | 318 | 0.0 | 0.0 | 0.00 | 0.00 | 0.00 | 72 | 1020.0 |
| 20260502040100 | 4 | 318 | 0.0 | 0.0 | 0.00 | 0.00 | 0.00 | 71 | 1020.0 |
| 20260502034529 | 5 | 318 | 0.0 | 3.2 | 0.00 | 0.00 | 0.00 | 69 | 1020.1 |
| 20260502033040 | 4 | 318 | 0.0 | 3.2 | 0.00 | 0.00 | 0.00 | 70 | 1020.1 |
| 20260502031604 | 4 | 318 | 0.0 | 3.2 | 0.00 | 0.00 | 0.00 | 69 | 1020.1 |
| 20260502030050 | 5 | 318 | 0.0 | 3.2 | 0.00 | 0.00 | 0.00 | 66 | 1020.0 |
| 20260502024600 | 6 | 318 | 0.0 | 1.6 | 0.00 | 0.00 | 0.00 | 61 | 1019.8 |
| 20260502023018 | 6 | 318 | 0.0 | 3.2 | 0.00 | 0.00 | 0.00 | 58 | 1019.8 |
| 20260502021535 | 6 | 318 | 0.0 | 3.2 | 0.00 | 0.00 | 0.00 | 58 | 1019.8 |
| 20260502020046 | 7 | 318 | 0.0 | 0.0 | 0.00 | 0.00 | 0.00 | 53 | 1019.6 |
| 20260502014504 | 7 | 318 | 0.0 | 0.0 | 0.00 | 0.00 | 0.00 | 51 | 1019.5 |
| 20260502013011 | 8 | 318 | 0.0 | 4.8 | 0.00 | 0.00 | 0.00 | 50 | 1019.4 |
| 20260502011528 | 8 | 318 | 1.6 | 4.8 | 0.00 | 0.00 | 0.00 | 46 | 1019.4 |
| 20260502010036 | 10 | 321 | 1.6 | 9.7 | 0.00 | 0.00 | 0.00 | 45 | 1019.3 |
| 20260502004543 | 10 | 325 | 4.8 | 14.5 | 0.00 | 0.00 | 0.00 | 43 | 1019.2 |
| 20260502003054 | 10 | 292 | 6.4 | 12.9 | 0.00 | 0.00 | 0.00 | 42 | 1019.2 |
| 20260502001601 | 11 | 271 | 6.4 | 16.1 | 0.00 | 0.00 | 0.00 | 41 | 1019.1 |
| 20260502000013 | 11 | 319 | 9.7 | 17.7 | 0.00 | 0.00 | 0.00 | 40 | 1019.2 |
| 20260501234540 | 11 | 329 | 4.8 | 14.5 | 0.00 | 0.00 | 0.00 | 39 | 1019.2 |
| 20260501233036 | 11 | 321 | 9.7 | 16.1 | 0.00 | 0.00 | 0.00 | 39 | 1019.2 |
| 20260501231555 | 11 | 343 | 8.0 | 17.7 | 0.00 | 0.00 | 0.00 | 40 | 1019.2 |
| 20260501230055 | 11 | 259 | 9.7 | 19.3 | 0.00 | 0.00 | 0.00 | 41 | 1019.2 |
| 20260501224505 | 11 | 307 | 9.7 | 16.1 | 0.00 | 0.18 | 0.00 | 41 | 1019.3 |
| 20260501223010 | 11 | 343 | 9.7 | 16.1 | 0.00 | 0.18 | 0.00 | 40 | 1019.4 |
| 20260501221521 | 11 | 296 | 11.3 | 20.9 | 0.00 | 0.18 | 0.00 | 42 | 1019.4 |
| 20260501220039 | 11 | 311 | 8.0 | 17.7 | 0.00 | 0.18 | 0.00 | 42 | 1019.5 |
| 20260501214557 | 11 | 298 | 6.4 | 12.9 | 0.00 | 0.71 | 0.00 | 44 | 1019.5 |
| 20260501213051 | 11 | 326 | 9.7 | 19.3 | 0.00 | 0.71 | 0.00 | 45 | 1019.5 |
| 20260501211550 | 11 | 360 | 9.7 | 17.7 | 0.00 | 0.71 | 0.00 | 45 | 1019.6 |
| 20260501210052 | 11 | 315 | 6.4 | 14.5 | 0.00 | 0.71 | 0.00 | 44 | 1019.8 |
| 20260501204505 | 11 | 290 | 11.3 | 20.9 | 0.00 | 0.71 | 0.00 | 45 | 1019.8 |
| 20260501203103 | 11 | 285 | 9.7 | 19.3 | 0.00 | 0.71 | 0.00 | 45 | 1019.9 |
| 20260501201502 | 11 | 288 | 11.3 | 19.3 | 0.00 | 0.71 | 0.00 | 46 | 1020.1 |
| 20260501200008 | 10 | 355 | 9.7 | 19.3 | 0.00 | 0.71 | 0.00 | 49 | 1020.1 |
| 20260501194516 | 10 | 192 | 3.2 | 17.7 | 0.00 | 0.71 | 0.00 | 43 | 1020.1 |
| 20260501193029 | 10 | 11 | 9.7 | 24.1 | 0.00 | 0.71 | 0.00 | 43 | 1020.3 |
| 20260501191530 | 10 | 321 | 9.7 | 22.5 | 0.00 | 0.71 | 0.00 | 50 | 1020.3 |
| 20260501190041 | 10 | 331 | 4.8 | 14.5 | 0.00 | 0.71 | 0.00 | 48 | 1020.2 |
| 20260501184545 | 9 | 315 | 9.7 | 20.9 | 0.00 | 0.71 | 0.00 | 51 | 1020.4 |
| 20260501183058 | 9 | 329 | 8.0 | 25.7 | 0.00 | 0.71 | 0.00 | 50 | 1020.4 |
| 20260501181600 | 8 | 305 | 9.7 | 17.7 | 0.00 | 0.71 | 0.00 | 53 | 1020.6 |
| 20260501180101 | 8 | 10 | 6.4 | 20.9 | 0.00 | 0.71 | 0.00 | 52 | 1020.6 |